Weather History for Fremont, NE

Change the Weather History Date:

Wednesday, September 11, 2013

  Actual Average Record
Temperature  
Mean Temperature 77 °F -  
Max Temperature 86 °F 82 °F 97 °F (2012)
Min Temperature 68 °F 55 °F 38 °F (1955)
Cooling Degree Days 12    
Growing Degree Days 27 (Base 50)    
Moisture  
Dew Point 67 °F    
Average Humidity 77    
Maximum Humidity 100    
Minimum Humidity 45    
Precipitation  
Precipitation 0.00 in - - ()
Sea Level Pressure  
Sea Level Pressure 30.11 in    
Wind  
Wind Speed 3 mph (NNE)    
Max Wind Speed 10 mph    
Max Gust Speed -    
Visibility 9 miles    
Events Fog , Rain , Thunderstorm    
Averages and records for this station are not official NWS values.
T = Trace of Precipitation, MM = Missing Value Source: NWS Daily Summary

Daily Weather History Graph

Daily Weather History Graph

Search for Another Location

Airport:

Trip Planner

Search our weather history database for the weather conditions in past years. The results will help you decide how hot, cold, wet, or windy it might be!

Date:

Astronomy

Sep. 11, 2013 Rise Set
Actual Time 7:02 AM CDT 7:41 PM CDT
Civil Twilight 6:34 AM CDT 8:09 PM CDT
Nautical Twilight 6:01 AM CDT 8:42 PM CDT
Astronomical Twilight 5:27 AM CDT 9:16 PM CDT
Moon 1:36 PM CDT (9/11) 11:34 PM CDT (9/11)
Length of Visible Light 13h 34m
Length of Day
12h 39m
Waxing Crescent, 39% of the Moon is Illuminated
Sep 11
Waxing Crescent
Sep 12
First Quarter
Sep 19
Full
Sep 26
Last Quarter
Oct 4
New

Hourly Weather History & Observations

Time (CDT) Temp. Heat Index Dew Point Humidity Pressure Visibility Wind Dir Wind Speed Gust Speed Precip Events Conditions
12:15 AM 75.4 °F - 67.8 °F 77% 30.06 in 10.0 mi SE 3.5 mph - N/A   Mostly Cloudy
12:35 AM 75.2 °F - 68.5 °F 80% 30.06 in 10.0 mi Calm Calm - N/A   Scattered Clouds
12:55 AM 74.7 °F - 69.1 °F 83% 30.06 in 10.0 mi SE 5.8 mph - N/A   Mostly Cloudy
1:15 AM 73.4 °F - 69.4 °F 87% 30.06 in 10.0 mi SSE 8.1 mph - N/A Thunderstorm Mostly Cloudy
1:35 AM 73.2 °F - 69.8 °F 89% 30.06 in 10.0 mi SSW 3.5 mph - N/A   Mostly Cloudy
1:55 AM 73.4 °F - 70.0 °F 89% 30.08 in 10.0 mi WSW 5.8 mph - N/A   Mostly Cloudy
2:15 AM 72.7 °F - 70.7 °F 93% 30.08 in 10.0 mi SSW 8.1 mph - N/A   Light Drizzle
2:35 AM 72.5 °F - 71.1 °F 95% 30.08 in 10.0 mi SSW 3.5 mph - N/A Rain Rain
2:55 AM 72.0 °F - 71.1 °F 97% 30.07 in 10.0 mi South 4.6 mph - N/A Rain Light Rain
3:15 AM 71.6 °F - 70.9 °F 98% 30.06 in 10.0 mi SE 4.6 mph - N/A   Scattered Clouds
3:35 AM 71.8 °F - 71.2 °F 98% 30.08 in 10.0 mi NNW 3.5 mph - N/A   Scattered Clouds
3:55 AM 71.6 °F - 70.9 °F 98% 30.08 in 10.0 mi NW 4.6 mph - N/A   Scattered Clouds
4:15 AM 71.4 °F - 70.5 °F 97% 30.07 in 10.0 mi Calm Calm - N/A   Scattered Clouds
4:35 AM 70.5 °F - 70.0 °F 98% 30.08 in 10.0 mi Calm Calm - N/A   Clear
4:55 AM 70.7 °F - 70.3 °F 99% 30.08 in 10.0 mi Calm Calm - N/A   Scattered Clouds
5:15 AM 70.9 °F - 70.9 °F 100% 30.07 in 10.0 mi SSE 4.6 mph - N/A   Clear
5:35 AM 70.7 °F - 70.7 °F 100% 30.07 in 10.0 mi SSE 3.5 mph - N/A   Clear
5:55 AM 70.3 °F - 70.3 °F 100% 30.06 in 10.0 mi Calm Calm - N/A   Clear
6:15 AM 69.8 °F - 69.8 °F 100% 30.07 in 10.0 mi NNW 3.5 mph - N/A   Scattered Clouds
6:35 AM 68.2 °F - 68.2 °F 100% 30.08 in 10.0 mi Calm Calm - N/A   Scattered Clouds
6:55 AM 68.0 °F - 68.0 °F 100% 30.09 in 10.0 mi Calm Calm - N/A   Mostly Cloudy
7:15 AM 68.0 °F - 68.0 °F 100% 30.10 in 10.0 mi Calm Calm - N/A   Scattered Clouds
7:35 AM 68.4 °F - 68.4 °F 100% 30.10 in 7.0 mi Calm Calm - N/A   Scattered Clouds
7:55 AM 68.9 °F - 68.9 °F 100% 30.10 in 0.2 mi Calm Calm - N/A Fog Fog
8:15 AM 69.3 °F - 69.3 °F 100% 30.11 in 0.2 mi NW 3.5 mph - N/A Fog Fog
8:35 AM 69.3 °F - 69.3 °F 100% 30.11 in 0.2 mi Calm Calm - N/A Fog Fog
8:55 AM 69.8 °F - 69.8 °F 100% 30.12 in 0.2 mi Calm Calm - N/A Fog Fog
9:15 AM 70.0 °F - 70.0 °F 100% 30.12 in 0.5 mi Calm Calm - N/A Fog Fog
9:35 AM 70.7 °F - 70.7 °F 100% 30.13 in 3.0 mi WNW 5.8 mph - N/A   Overcast
9:55 AM 71.2 °F - 71.2 °F 100% 30.13 in 10.0 mi WNW 5.8 mph - N/A   Overcast
10:15 AM 73.4 °F - 71.6 °F 94% 30.13 in 10.0 mi NW 6.9 mph - N/A   Mostly Cloudy
10:35 AM 76.3 °F - 70.7 °F 83% 30.13 in 10.0 mi NNW 9.2 mph - N/A   Scattered Clouds
10:55 AM 78.1 °F - 69.4 °F 75% 30.13 in 10.0 mi North 3.5 mph - N/A   Scattered Clouds
11:15 AM 79.0 °F - 67.6 °F 68% 30.13 in 10.0 mi North 5.8 mph - N/A   Clear
11:35 AM 81.0 °F 83.2 °F 66.4 °F 61% 30.13 in 10.0 mi NNE 3.5 mph - N/A   Clear
11:55 AM 81.5 °F 83.7 °F 66.2 °F 60% 30.14 in 10.0 mi NNE 5.8 mph - N/A   Clear
12:15 PM 81.9 °F 83.5 °F 64.6 °F 56% 30.13 in 10.0 mi NNE 4.6 mph - N/A   Clear
12:35 PM 83.1 °F 84.2 °F 63.1 °F 51% 30.13 in 10.0 mi ENE 6.9 mph - N/A   Clear
12:55 PM 84.9 °F 85.6 °F 62.8 °F 47% 30.13 in 10.0 mi NE 5.8 mph - N/A   Clear
1:15 PM 85.5 °F 86.1 °F 62.2 °F 46% 30.13 in 10.0 mi NNE 4.6 mph - N/A   Clear
1:35 PM 85.1 °F 85.9 °F 62.6 °F 47% 30.13 in 10.0 mi NNE 6.9 mph - N/A   Clear
1:55 PM 86.4 °F 87.0 °F 62.6 °F 45% 30.12 in 10.0 mi NE 10.4 mph - N/A   Clear
2:15 PM 84.7 °F 85.2 °F 61.9 °F 46% 30.12 in 10.0 mi NNW 5.8 mph - N/A   Scattered Clouds
2:35 PM 84.0 °F 84.5 °F 62.1 °F 47% 30.12 in 10.0 mi North 3.5 mph - N/A   Mostly Cloudy
2:55 PM 84.0 °F 84.5 °F 61.7 °F 47% 30.12 in 10.0 mi North 5.8 mph - N/A   Overcast
3:15 PM 82.6 °F 83.6 °F 62.8 °F 51% 30.12 in 10.0 mi North 5.8 mph - N/A   Overcast
3:35 PM 82.2 °F 83.5 °F 63.5 °F 53% 30.12 in 10.0 mi North 4.6 mph - N/A   Overcast
3:55 PM 82.0 °F 83.3 °F 63.1 °F 53% 30.12 in 10.0 mi Calm Calm - N/A Rain Light Rain
4:15 PM 82.2 °F 83.0 °F 62.1 °F 50% 30.12 in 10.0 mi NE 4.6 mph - N/A   Overcast
4:35 PM 82.4 °F 83.0 °F 61.5 °F 49% 30.11 in 10.0 mi NE 4.6 mph - N/A   Overcast
4:55 PM 81.9 °F 82.6 °F 61.7 °F 50% 30.11 in 10.0 mi NE 3.5 mph - N/A   Overcast
5:15 PM 81.9 °F 82.9 °F 62.4 °F 52% 30.11 in 10.0 mi East 4.6 mph - N/A   Mostly Cloudy
5:35 PM 81.1 °F 82.8 °F 64.6 °F 57% 30.11 in 10.0 mi SE 3.5 mph - N/A   Overcast
5:55 PM 81.0 °F 82.5 °F 64.0 °F 56% 30.10 in 10.0 mi SSE 3.5 mph - N/A   Mostly Cloudy
6:15 PM 79.9 °F - 65.7 °F 62% 30.10 in 10.0 mi Calm Calm - N/A   Scattered Clouds
6:35 PM 79.7 °F - 65.7 °F 62% 30.10 in 10.0 mi Calm Calm - N/A   Clear
6:55 PM 79.3 °F - 65.1 °F 62% 30.09 in 10.0 mi Calm Calm - N/A   Clear
7:15 PM 78.8 °F - 65.7 °F 64% 30.10 in 10.0 mi Calm Calm - N/A   Clear
7:35 PM 78.1 °F - 66.6 °F 68% 30.11 in 10.0 mi Calm Calm - N/A   Clear
7:55 PM 77.4 °F - 67.1 °F 71% 30.11 in 10.0 mi Calm Calm - N/A   Clear
8:15 PM 76.5 °F - 67.1 °F 73% 30.11 in 10.0 mi Calm Calm - N/A   Clear
8:35 PM 74.8 °F - 66.9 °F 76% 30.12 in 10.0 mi Calm Calm - N/A   Scattered Clouds
8:55 PM 74.8 °F - 67.1 °F 77% 30.12 in 10.0 mi Calm Calm - N/A   Mostly Cloudy
9:15 PM 75.2 °F - 66.6 °F 74% 30.12 in 10.0 mi Calm Calm - N/A   Overcast
9:35 PM 74.1 °F - 66.7 °F 78% 30.13 in 10.0 mi Calm Calm - N/A   Overcast
9:55 PM 73.9 °F - 67.3 °F 80% 30.13 in 10.0 mi Calm Calm - N/A   Overcast
10:15 PM 73.9 °F - 67.3 °F 80% 30.13 in 10.0 mi Calm Calm - N/A   Overcast
10:35 PM 73.2 °F - 67.5 °F 82% 30.13 in 10.0 mi WNW 3.5 mph - N/A   Overcast
10:55 PM 72.5 °F - 67.5 °F 84% 30.13 in 10.0 mi Calm Calm - N/A   Mostly Cloudy
11:15 PM 72.9 °F - 67.6 °F 84% 30.14 in 10.0 mi NW 3.5 mph - N/A   Scattered Clouds
11:35 PM 71.6 °F - 67.6 °F 87% 30.13 in 10.0 mi Calm Calm - N/A   Scattered Clouds
11:55 PM 71.6 °F - 67.5 °F 87% 30.13 in 10.0 mi Calm Calm - N/A   Mostly Cloudy